Flag for Cyprus Weather past 2 weeks in Nicosia, Cyprus

50 °F


Feels Like: 48 °F
Forecast: 54 / 72 °F
Wind: 5 mph from West

Location: Ercan

Current Time: Nov 28, 2015 at 12:47:09 AM

Latest Report: Nov 27, 2015 at 11:50 PM

Visibility: 3 mi

Pressure: 30.07 "Hg

Humidity: 94%

Dew point: 48 °F

Location of NicosiaLocation

Historic Weather in Nicosia — Graph


Nicosia temperature yesterday

Maximum temperature yesterday: 77 °F (at 11:20 AM)
Minimum temperature yesterday: 48 °F (at 5:20 AM)
Average temperature yesterday: 61 °F

Past Weeks' High & Low Weather Summary

High81 °F (Nov 24, 1:20 PM)100% (Nov 27, 7:50 AM)30.24 "Hg (Nov 27, 7:50 AM)
Low45 °F (Nov 21, 6:20 AM)12% (Nov 24, 11:50 AM)29.74 "Hg (Nov 16, 1:20 PM)
Average62 °F60%30.04 "Hg
* Reported Nov 12 11:20 PM — Nov 27 11:20 PM, Nicosia, Weather by CustomWeather, © 2015

Note: Actual official high and low records may vary slightly from our data, if they occured in-between our weather recording intervals... More about our weather records


Nicosia weather history for previous 24 hours

Time TempWeatherWind HumidityBarometerVisibility
11:20 PM
Fri, Nov 27
52 °FFog.6 mph94%30.07 "Hg3 mi
10:50 PM54 °FFog.5 mph94%30.07 "Hg3 mi
10:20 PM54 °FFog.6 mph94%30.07 "Hg3 mi
9:50 PM55 °FPassing clouds.6 mph94%30.07 "Hg4 mi
9:20 PM55 °FPassing clouds.7 mph94%30.07 "HgN/A
8:50 PM55 °FPassing clouds.6 mph88%30.07 "HgN/A
8:20 PM57 °FPassing clouds.6 mph88%30.07 "HgN/A
7:50 PM57 °FPassing clouds.5 mph88%30.04 "HgN/A
7:20 PM59 °FPassing clouds.No wind88%30.04 "HgN/A
6:50 PM61 °FPartly cloudy.5 mph88%30.04 "HgN/A
6:20 PM61 °FPartly cloudy.9 mph88%30.04 "HgN/A
5:50 PM63 °FPartly cloudy.9 mph88%30.04 "HgN/A
5:20 PM63 °FPartly cloudy.8 mph88%30.01 "HgN/A
4:50 PM63 °FPartly cloudy.14 mph88%30.01 "HgN/A
4:20 PM64 °FBroken clouds.9 mph83%30.01 "HgN/A
3:50 PM64 °FBroken clouds.9 mph83%30.01 "HgN/A
3:20 PM66 °FBroken clouds.9 mph78%29.98 "HgN/A
2:50 PM66 °FBroken clouds.14 mph78%29.98 "HgN/A
2:20 PM72 °FBroken clouds.9 mph57%29.98 "HgN/A
1:50 PM72 °FBroken clouds.8 mph61%29.98 "HgN/A
1:20 PM73 °FBroken clouds.10 mph53%29.98 "HgN/A
12:50 PM73 °FBroken clouds.12 mph50%29.98 "HgN/A
12:20 PM75 °FScattered clouds.9 mph44%29.98 "HgN/A
11:50 AM77 °FScattered clouds.13 mph47%29.98 "HgN/A
11:20 AM77 °FScattered clouds.10 mph44%29.98 "HgN/A
10:50 AM73 °FScattered clouds.9 mph57%30.01 "HgN/A
10:20 AM72 °FScattered clouds.9 mph65%30.01 "HgN/A
9:50 AM70 °FScattered clouds.8 mph69%30.01 "HgN/A
9:20 AM66 °FScattered clouds.6 mph83%30.01 "HgN/A
8:50 AM61 °FScattered clouds.3 mph100%30.01 "Hg5 mi
8:20 AM59 °FScattered clouds.No wind100%30.01 "Hg5 mi
7:50 AM57 °FScattered clouds.5 mph100%29.98 "Hg4 mi
7:20 AM50 °FCool.No wind94%29.98 "Hg2 mi
6:50 AM50 °FRain. Cloudy.No wind94%29.95 "Hg3 mi
5:50 AM52 °FFog.No wind94%29.95 "Hg1 mi
5:20 AM48 °FFog.No wind94%29.95 "Hg3 mi
4:50 AM52 °FFog.No wind94%29.95 "Hg3 mi
4:20 AM52 °FFog.No wind94%29.95 "Hg4 mi
3:50 AM52 °FPassing clouds.No wind94%29.95 "Hg4 mi
3:20 AM52 °FPassing clouds.7 mph94%29.95 "Hg4 mi
2:50 AM52 °FPassing clouds.7 mph94%29.95 "Hg4 mi
2:20 AM55 °FPassing clouds.No wind94%29.95 "Hg4 mi
1:50 AM54 °FPassing clouds.No wind88%29.95 "Hg4 mi
1:20 AM55 °FPassing clouds.5 mph88%29.95 "Hg4 mi
12:50 AM54 °FPassing clouds.6 mph94%29.95 "Hg4 mi
Weather by CustomWeather, © 2015

See weather overviewHow to use our weather pages